Ana Sayfa
METAR-TAF:

METAR-TAF

Havaalanları :

Frederick, Oklahoma, Amerika Birleşik Devletleri

Enlem: 34-20-40N, Boylam: 098-58-59W, yükseklik: 382 m

Güncel hava durumu gözlemi

Rapor saat 13:53 UTC de 41 dakika önce yapıldı.
Rüzgar kuzeydan 13 kt
Sıcaklık 2°C
Nem 93%
Basınç 1020 hPa
Görüş mesafesi: 16.1 km
900 ft yükseklikte çok bulutlu

METAR: KFDR 291353Z AUTO 36013KT 10SM OVC009 02/01 A3012 RMK AO2 SLP204 T00220006

Saat: 08:34 (14:34 UTC)


TAF: eksik

4.000'den fazla havaalanı için hava durumu gözlemleri ve tahminleri (METAR ve TAF raporları).

Kullanılabilir istasyonlar harita üzerinde sarı ve kırmızı noktalarla gösterilir.

İstasyonun adını görmek için fareyi noktanın üzerinde gezdirin.

Sonrasında hava gözlem ve tahminlerini görmek için tıklayın.

Haritayı değiştirmek için: yaklaştırmak için siyah artı işaretli yeşil düğmeye ve uzaklaştırmak için de eksi işaretli düğmeye hızla tıklayın; bitişik haritalar için yeşil okları kullanın.


METAR-TAF: